TimeMST,TemperatureF,Dew PointF,Humidity,Sea Level PressureIn,VisibilityMPH,Wind Direction,Wind SpeedMPH,Gust SpeedMPH,PrecipitationIn,Events,Conditions,WindDirDegrees,DateUTC
12:51 AM,35.1,5.0,28,30.30,10.0,NNW,5.8,-,N/A,,Clear,330,2012-11-12 07:51:00
1:51 AM,30.9,6.1,35,30.32,10.0,NNE,8.1,-,N/A,,Clear,20,2012-11-12 08:51:00
2:51 AM,30.0,6.1,36,30.35,10.0,North,3.5,-,N/A,,Clear,360,2012-11-12 09:51:00
3:51 AM,30.0,8.1,40,30.35,10.0,North,5.8,-,N/A,,Clear,350,2012-11-12 10:51:00
4:51 AM,28.9,8.1,41,30.36,10.0,North,4.6,-,N/A,,Clear,10,2012-11-12 11:51:00
5:51 AM,27.0,8.1,45,30.38,10.0,North,4.6,-,N/A,,Clear,360,2012-11-12 12:51:00
6:51 AM,30.0,8.1,40,30.40,10.0,Calm,Calm,-,N/A,,Clear,0,2012-11-12 13:51:00
7:51 AM,35.1,8.1,33,30.42,10.0,NNE,4.6,-,N/A,,Clear,30,2012-11-12 14:51:00
8:51 AM,39.0,6.1,26,30.42,10.0,Calm,Calm,-,N/A,,Clear,0,2012-11-12 15:51:00
9:51 AM,43.0,7.0,23,30.43,10.0,West,3.5,-,N/A,,Clear,270,2012-11-12 16:51:00
10:51 AM,48.0,6.1,18,30.40,10.0,SW,4.6,-,N/A,,Clear,230,2012-11-12 17:51:00
11:51 AM,50.0,5.0,16,30.37,10.0,South,5.8,-,N/A,,Clear,180,2012-11-12 18:51:00
12:51 PM,52.0,6.1,16,30.33,10.0,SE,10.4,-,N/A,,Clear,130,2012-11-12 19:51:00
1:51 PM,53.1,5.0,14,30.31,10.0,South,10.4,-,N/A,,Clear,180,2012-11-12 20:51:00
2:51 PM,54.0,3.0,13,30.30,10.0,South,8.1,-,N/A,,Clear,190,2012-11-12 21:51:00
3:51 PM,54.0,3.0,13,30.30,10.0,SSE,10.4,-,N/A,,Clear,150,2012-11-12 22:51:00
4:51 PM,48.9,1.9,15,30.31,10.0,SSE,4.6,-,N/A,,Clear,160,2012-11-12 23:51:00
5:51 PM,44.1,-0.0,16,30.34,10.0,Calm,Calm,-,N/A,,Clear,0,2012-11-13 00:51:00
6:51 PM,37.0,-2.0,19,30.35,10.0,SSW,4.6,-,N/A,,Clear,200,2012-11-13 01:51:00
7:51 PM,35.1,-0.9,22,30.36,10.0,SW,6.9,-,N/A,,Clear,230,2012-11-13 02:51:00
8:51 PM,37.9,1.9,22,30.36,10.0,WSW,9.2,-,N/A,,Clear,240,2012-11-13 03:51:00
9:51 PM,33.1,1.0,26,30.38,10.0,Calm,Calm,-,N/A,,Clear,0,2012-11-13 04:51:00
10:51 PM,32.0,1.0,27,30.36,10.0,SSW,3.5,-,N/A,,Clear,200,2012-11-13 05:51:00
11:51 PM,30.0,1.0,29,30.34,10.0,Calm,Calm,-,N/A,,Clear,0,2012-11-13 06:51:00